Flag for Lebanon Weather past 2 weeks in Zahlé, Lebanon

Now
63 °F

Partly sunny.


Feels Like: 63 °F
Forecast: 46 / 57 °F
Wind: 14 mph from Southwest

Location: Beirut Airport

Current Time: Mar 30, 2015 at 9:00:56 AM

Latest Report: Mar 30, 2015 at 8:00 AM


Visibility: 5 mi

Pressure: 29.95 "Hg

Humidity: 68%

Dew point: 52 °F

Location of ZahléLocation

Historic Weather in Zahlé — Graph

°F

Zahlé temperature yesterday

Maximum temperature yesterday: 68 °F (at 10:00 AM)
Minimum temperature yesterday: 63 °F (at 7:00 AM)
Average temperature yesterday: 65 °F

Past Weeks' High & Low Weather Summary

 TemperatureHumidityPressure
High82 °F (Mar 28, 6:00 AM)88% (Mar 29, 9:00 PM)30.21 "Hg (Mar 29, 9:00 PM)
Low54 °F (Mar 22, 4:00 AM)21% (Mar 27, 12:00 PM)29.65 "Hg (Mar 28, 5:00 AM)
Average63 °F60%30.03 "Hg
* Reported Mar 15 6:00 AM — Mar 30 7:00 AM, Zahlé, Weather by CustomWeather, © 2015

Note: Actual official high and low records may vary slightly from our data, if they occured in-between our weather recording intervals... More about our weather records

Advertising

Zahlé weather history for previous 24 hours

 ConditionsComfort  
Time TempWeatherWind HumidityBarometerVisibility
7:00 AM
Mon, Mar 30
63 °FPassing clouds.3 mph56%29.92 "Hg5 mi
6:00 AM63 °FPassing clouds.3 mph56%29.92 "HgN/A
5:00 AM63 °FPassing clouds.3 mph59%29.92 "HgN/A
4:00 AM61 °FPassing clouds.3 mph68%29.92 "Hg5 mi
3:00 AM61 °FPassing clouds.1 mph72%29.89 "Hg5 mi
2:00 AM63 °FPassing clouds.5 mph73%29.92 "Hg5 mi
1:00 AM63 °FPassing clouds.5 mph77%29.92 "Hg5 mi
12:00 AM63 °FPassing clouds.6 mph77%29.95 "Hg5 mi
11:00 PM
Sun, Mar 29
63 °FPassing clouds.3 mph83%29.95 "Hg5 mi
10:00 PM63 °FPassing clouds.2 mph88%29.92 "Hg5 mi
9:00 PM63 °FPassing clouds.3 mph88%29.92 "Hg5 mi
8:00 PM64 °FPassing clouds.3 mph83%29.89 "Hg5 mi
7:00 PM64 °FPartly sunny.6 mph83%29.86 "Hg5 mi
6:00 PM66 °FPartly sunny.5 mph78%29.83 "Hg5 mi
4:00 PM64 °FThunderstorms. Partly sunny.3 mph83%29.83 "Hg5 mi
3:00 PM66 °FThunderstorms. Partly sunny.6 mph83%29.83 "Hg5 mi
2:00 PM66 °FPartly sunny.2 mph73%29.80 "Hg5 mi
1:00 PM66 °FPartly sunny.8 mph78%29.80 "HgN/A
12:00 PM68 °FPartly sunny.8 mph73%29.80 "Hg5 mi
11:00 AM66 °FPartly sunny.7 mph78%29.83 "Hg5 mi
10:00 AM68 °FPartly sunny.3 mph73%29.83 "Hg5 mi
9:00 AM66 °FPartly sunny.1 mph78%29.83 "Hg5 mi
Weather by CustomWeather, © 2015

See weather overviewHow to use our weather pages